Flag for U.S.A. Weather past 2 weeks in Palestine, Texas, U.S.A.

Now
81 °F

Clear.


Feels Like: 82 °F
Forecast: 71 / 98 °F
Wind: No wind

Location: Palestine Municipal Airport

Current Time: Aug 2, 2015 at 11:48:03 PM

Latest Report: Aug 2, 2015 at 10:55 PM


Visibility: 10 mi

Pressure: 29.90 "Hg

Humidity: 54%

Dew point: 63 °F

Location of PalestineLocation

Historic Weather in Palestine — Graph

°F

Palestine temperature yesterday

Maximum temperature yesterday: 97 °F (at 4:15 PM)
Minimum temperature yesterday: 72 °F (at 3:15 AM)
Average temperature yesterday: 84 °F

Past Weeks' High & Low Weather Summary

 TemperatureHumidityPressure
High101 °F (Jul 30, 3:55 PM)96% (Jul 24, 6:55 AM)30.10 "Hg (Jul 24, 6:55 AM)
Low72 °F (Aug 1, 3:15 AM)23% (Aug 2, 2:15 PM)29.84 "Hg (Jul 21, 7:35 PM)
Average86 °F62%29.98 "Hg
* Reported Jul 18 10:15 PM — Aug 2 10:15 PM, Palestine, Weather by CustomWeather, © 2015

Note: Actual official high and low records may vary slightly from our data, if they occured in-between our weather recording intervals... More about our weather records

Advertising

Palestine weather history for previous 24 hours

 ConditionsComfort  
Time TempWeatherWind HumidityBarometerVisibility
10:15 PM
Sun, Aug 2
82 °FClear.No wind54%29.89 "Hg10 mi
9:55 PM81 °FClear.3 mph58%29.88 "Hg10 mi
9:35 PM80 °FClear.5 mph64%29.88 "Hg10 mi
9:15 PM83 °FSunny.No wind55%29.87 "Hg10 mi
8:55 PM84 °FSunny.No wind51%29.87 "Hg10 mi
8:35 PM86 °FSunny.No wind45%29.87 "Hg10 mi
8:15 PM89 °FSunny.No wind38%29.87 "Hg10 mi
7:55 PM92 °FSunny.No wind31%29.87 "Hg10 mi
7:35 PM94 °FSunny.5 mph28%29.87 "Hg10 mi
7:15 PM95 °FSunny.6 mph28%29.87 "Hg10 mi
6:55 PM96 °FSunny.3 mph28%29.87 "Hg10 mi
6:35 PM96 °FSunny.5 mph27%29.87 "Hg10 mi
6:15 PM96 °FSunny.7 mph27%29.88 "Hg10 mi
5:55 PM97 °FSunny.6 mph27%29.88 "Hg10 mi
5:15 PM97 °FSunny.6 mph26%29.89 "Hg10 mi
4:55 PM96 °FSunny.10 mph26%29.89 "Hg10 mi
4:35 PM97 °FSunny.3 mph25%29.89 "Hg10 mi
3:55 PM96 °FSunny.3 mph25%29.91 "Hg10 mi
3:35 PM96 °FSunny.6 mph26%29.92 "Hg10 mi
3:15 PM96 °FSunny.6 mph25%29.92 "Hg10 mi
2:55 PM96 °FSunny.7 mph25%29.93 "Hg10 mi
2:35 PM96 °FSunny.3 mph23%29.94 "Hg10 mi
2:15 PM96 °FSunny.5 mph23%29.94 "Hg10 mi
1:55 PM95 °FSunny.6 mph25%29.95 "Hg10 mi
1:35 PM94 °FSunny.7 mph25%29.95 "Hg10 mi
1:15 PM94 °FSunny.8 mph27%29.96 "Hg10 mi
12:55 PM93 °FSunny.No wind29%29.97 "Hg10 mi
12:35 PM93 °FSunny.No wind29%29.98 "Hg10 mi
12:15 PM92 °FSunny.No wind30%29.98 "Hg10 mi
11:55 AM93 °FSunny.5 mph30%29.98 "Hg10 mi
11:35 AM92 °FSunny.10 mph32%29.99 "Hg10 mi
11:15 AM91 °FSunny.7 mph34%29.99 "Hg10 mi
10:55 AM90 °FSunny.9 mph35%29.99 "Hg10 mi
10:35 AM89 °FSunny.6 mph36%29.99 "Hg10 mi
10:15 AM88 °FSunny.7 mph38%29.99 "Hg10 mi
9:55 AM87 °FSunny.7 mph39%29.99 "Hg10 mi
9:35 AM86 °FSunny.5 mph45%29.99 "Hg10 mi
9:15 AM85 °FSunny.6 mph44%29.98 "Hg10 mi
8:55 AM83 °FSunny.6 mph46%29.98 "Hg10 mi
8:35 AM81 °FSunny.5 mph48%29.98 "Hg10 mi
8:15 AM80 °FSunny.6 mph51%29.97 "Hg10 mi
7:55 AM78 °FSunny.6 mph55%29.97 "Hg10 mi
7:35 AM76 °FClear.3 mph60%29.96 "Hg10 mi
7:15 AM76 °FClear.3 mph56%29.96 "Hg10 mi
6:55 AM75 °FClear.3 mph57%29.96 "Hg10 mi
6:35 AM76 °FClear.3 mph55%29.95 "Hg10 mi
6:15 AM77 °FClear.5 mph54%29.95 "Hg10 mi
5:55 AM77 °FClear.5 mph51%29.95 "Hg10 mi
5:35 AM77 °FClear.5 mph51%29.95 "Hg10 mi
5:15 AM78 °FClear.5 mph50%29.95 "Hg10 mi
4:55 AM78 °FClear.6 mph51%29.95 "Hg10 mi
4:15 AM77 °FClear.5 mph54%29.95 "Hg10 mi
3:55 AM78 °FClear.No wind54%29.95 "Hg10 mi
3:35 AM77 °FClear.3 mph58%29.95 "Hg10 mi
3:15 AM77 °FClear.5 mph55%29.95 "Hg10 mi
2:55 AM79 °FClear.3 mph53%29.95 "Hg10 mi
2:35 AM79 °FClear.5 mph52%29.95 "Hg10 mi
2:15 AM79 °FClear.5 mph52%29.95 "Hg10 mi
1:55 AM78 °FClear.6 mph53%29.96 "Hg10 mi
1:35 AM78 °FClear.5 mph53%29.96 "Hg10 mi
1:15 AM79 °FClear.3 mph52%29.96 "Hg10 mi
12:55 AM79 °FClear.No wind51%29.97 "Hg10 mi
12:35 AM79 °FClear.No wind50%29.96 "Hg10 mi
12:15 AM80 °FClear.No wind50%29.96 "Hg10 mi
11:55 PM
Sat, Aug 1
81 °FClear.3 mph47%29.96 "Hg10 mi
11:35 PM81 °FClear.3 mph48%29.96 "Hg10 mi
11:15 PM81 °FClear.5 mph48%29.97 "Hg10 mi
Weather by CustomWeather, © 2015

See weather overviewHow to use our weather pages